Tracking 19831 objects as of 23-Aug-2019
HD Live streaming from Space Station
objects crossing your sky now

COSMOS 1433

Track COSMOS 1433 now!
10-day predictions
COSMOS 1433 is classified as:


NORAD ID: 13765
Int'l Code: 1983-002E
Perigee: 1,453.3 km
Apogee: 1,474.0 km
Inclination: 74.0 °
Period: 115.0 minutes
Semi major axis: 7834 km
RCS: 0.733 m2 (medium)
Launch date: January 19, 1983
Source: Commonwealth of Independent States (former USSR) (CIS)
Launch site: PLESETSK MISSILE AND SPACE COMPLEX (PKMTR)
aabbcc
Your satellite tracking list
Your tracking list is empty




NASA's NSSDC Master Catalog

Two Line Element Set (TLE):
1 13765U 83002E   19234.68396697 -.00000019 +00000-0 -22630-4 0  9997
2 13765 074.0259 336.1802 0013202 122.6899 020.0136 12.51906280672426
Source of the keplerian elements: AFSPC